Regional Weather Roundup
Issued by NWS

Home | Current Version | Previous Version | Graphics & Text | Print | Product List | Glossary On
Versions: 1 2 3 4 5 6 7 8 9 10 11 12 13 14 15 16 17 18 19 20 21 22 23 24 25 26 27 28 29 30 31 32 33 34 35 36 37 38 39 40 41 42 43 44 45 46 47 48 49 50
000
ASUS43 KLOT 161100
RWRIL

ILLINOIS REGIONAL WEATHER ROUNDUP
NATIONAL WEATHER SERVICE CHICAGO/ROMEOVILLE IL
600 AM CDT WED APR 16 2014

NOTE: "FAIR" INDICATES FEW OR NO CLOUDS BELOW 12,000 FEET WITH NO
SIGNIFICANT WEATHER AND/OR OBSTRUCTIONS TO VISIBILITY.

* THESE STATIONS ARE NOT UNDER NWS QUALITY CONTROL. THEY ALSO MAY NOT
  REPORT WEATHER SUCH AS PRECIPITATION OR FOG.

ILZ001-002-007-009-015-016-024-161200-
NORTHWEST ILLINOIS

CITY           SKY/WX    TMP DP  RH WIND       PRES   REMARKS
MOLINE         CLEAR     32  22  66 SE9       30.14S WCI  24
STERLING*      CLEAR     32  23  69 SE8       30.18S WCI  25
$$

ILZ003-004-008-010-011-017-018-161200-
NORTH CENTRAL ILLINOIS

CITY           SKY/WX    TMP DP  RH WIND       PRES   REMARKS
ROCKFORD       PTCLDY    30  23  75 SE12      30.23R WCI  20
$$

ILZ005-006-012>014-019>023-161200-
NORTHEAST ILLINOIS

CITY           SKY/WX    TMP DP  RH WIND       PRES   REMARKS
CHICAGO-OHARE  PTCLDY    29  19  66 S8        30.26R WCI  21
CHICAGO-MIDWAY PTCLDY    31  21  66 SE6       30.27R WCI  25
AURORA         CLEAR     28  22  78 SE8       30.25R WCI  20
WAUKEGAN       MOCLDY    30  20  66 S12       30.25R WCI  20
DUPAGE AIRPORT CLEAR     29  21  72 SE9       30.24R WCI  20
WHEELING       PTCLDY    28  21  75 S6        30.27R WCI  22
NORTHERLY ISL    N/A     32  20  61 S7          N/A  WCI  26
$$

LMZ740>746-161200-
SOUTHERN LAKE MICHIGAN

STATION/POSITION SKY/WX   TEMP    WIND        PRES    VSBY  WAVE
                          AIR SEA DIR/SP/G                  HT/PER
                          (F)     (DEG/KT/KT) (MB)    (MI)  (FT/S)
WAUKEGAN HARBOR            34     200/ 14/ 17 1025.1S
HARRISON CRIB              34     180/ 21/ 24   N/A
BURNHAM HARBOR             32     180/  6/ 13   N/A
CALUMET HARBOR             31     160/  8/ 11 1025.8R
MICHIGAN CITY              30     140/ 10/ 13   N/A
$$

ILZ025>027-034>036-040-047-049-050-058-095>099-161200-
WEST-CENTRAL ILLINOIS

CITY           SKY/WX    TMP DP  RH WIND       PRES   REMARKS
QUINCY         CLEAR     37  22  54 S14       30.12S WCI  28
$$

ILZ028>032-037-038-041>044-048-051>054-059>061-161200-
CENTRAL ILLINOIS

CITY           SKY/WX    TMP DP  RH WIND       PRES   REMARKS
DECATUR        CLEAR     31  24  75 SE8       30.26R WCI  23
PEORIA         CLEAR     34  23  64 S12       30.21R WCI  25
SPRINGFIELD    CLEAR     36  24  62 S16       30.22S WCI  26
TAYLORVILLE    NOT AVBL
$$

ILZ033-039-045-046-055>057-062-063-161200-
EAST-CENTRAL ILLINOIS

CITY           SKY/WX    TMP DP  RH WIND       PRES   REMARKS
CHAMPAIGN      CLEAR     30  25  81 SE10      30.27R WCI  21
MATTOON        CLEAR     32  24  72 SE9       30.28R WCI  24
$$

ILZ079-100>102-161200-
SOUTHWEST ILLINOIS

CITY           SKY/WX    TMP DP  RH WIND       PRES   REMARKS
BELLEVILLE     CLEAR     33  26  73 SE8       30.25R WCI  27
CAHOKIA*       CLEAR     34  26  72 SE7       30.24R WCI  28
$$

ILZ064>066-069>071-074>076-080>082-084>086-088>090-092>094-161200-
SOUTH-CENTRAL ILLINOIS

CITY           SKY/WX    TMP DP  RH WIND       PRES   REMARKS
CARBONDALE     CLEAR     33  24  69 SE6       30.28R WCI  28
MT. VERNON     PTCLDY    34  18  51 SE3       30.29S
$$

ILZ067-068-072-073-078-083-087-091-161200-
SOUTHEAST ILLINOIS

CITY           SKY/WX    TMP DP  RH WIND       PRES   REMARKS
$$

ABBREVIATIONS USED IN REMARKS
   TC - TEMPERATURE IN CELSIUS
  WCI - WIND CHILL INDEX
   HX - HEAT INDEX
  VSB - VISIBILITY
$$




USA.gov is the U.S. government's official web portal to all federal, state and local government web resources and services.